TimeCST,TemperatureF,Dew PointF,Humidity,Sea Level PressureIn,VisibilityMPH,Wind Direction,Wind SpeedMPH,Gust SpeedMPH,PrecipitationIn,Events,Conditions,WindDirDegrees,DateUTC
12:52 AM,46.0,39.0,76,-9999,5.0,SSW,4.6,-,0.02,Rain,Rain,210,2013-01-09 06:52:00
1:52 AM,44.1,41.0,89,-9999,7.0,South,3.5,-,0.08,Rain,Light Rain,170,2013-01-09 07:52:00
2:52 AM,45.0,42.1,90,-9999,7.0,WNW,3.5,-,0.03,Rain,Light Rain,290,2013-01-09 08:52:00
3:52 AM,44.1,42.1,93,-9999,4.0,NW,4.6,-,0.03,Rain,Light Rain,310,2013-01-09 09:52:00
4:52 AM,44.1,42.1,93,-9999,4.0,Calm,Calm,-,0.02,,Overcast,0,2013-01-09 10:52:00
5:04 AM,44.6,42.8,93,-9999,2.0,Calm,Calm,-,0.01,Rain,Light Rain,0,2013-01-09 11:04:00
5:10 AM,44.6,42.8,93,-9999,3.0,Calm,Calm,-,0.01,Rain,Light Rain,0,2013-01-09 11:10:00
5:26 AM,42.8,41.0,93,-9999,1.8,SSE,5.8,-,0.01,,Overcast,160,2013-01-09 11:26:00
5:34 AM,42.8,41.0,93,-9999,1.8,SSE,3.5,-,0.01,,Overcast,150,2013-01-09 11:34:00
5:52 AM,43.0,41.0,93,-9999,1.5,Calm,Calm,-,0.01,,Overcast,0,2013-01-09 11:52:00
6:29 AM,42.8,42.8,100,-9999,2.5,SSE,4.6,-,N/A,,Overcast,160,2013-01-09 12:29:00
6:38 AM,42.8,41.0,93,-9999,1.8,SSE,5.8,-,N/A,,Overcast,160,2013-01-09 12:38:00
6:52 AM,43.0,41.0,93,-9999,2.5,SSE,4.6,-,N/A,,Overcast,160,2013-01-09 12:52:00
7:07 AM,42.8,39.2,87,30.34,0.8,Calm,Calm,-,N/A,,Scattered Clouds,0,2013-01-09 13:07:00
7:52 AM,42.1,39.9,92,30.37,0.2,Calm,Calm,-,N/A,Fog,Fog,0,2013-01-09 13:52:00
8:05 AM,42.8,41.0,93,30.37,1.0,Calm,Calm,-,N/A,,Overcast,0,2013-01-09 14:05:00
8:52 AM,44.1,42.1,93,30.40,0.5,Calm,Calm,-,N/A,Fog,Fog,0,2013-01-09 14:52:00
8:58 AM,44.6,42.8,93,30.39,1.0,Calm,Calm,-,N/A,,Scattered Clouds,0,2013-01-09 14:58:00
9:10 AM,46.4,44.6,93,30.40,3.0,Calm,Calm,-,N/A,,Partly Cloudy,0,2013-01-09 15:10:00
9:52 AM,48.9,46.0,90,30.42,5.0,SSW,3.5,-,N/A,,Scattered Clouds,200,2013-01-09 15:52:00
11:52 AM,55.9,45.0,67,30.39,10.0,Calm,Calm,-,N/A,,Clear,0,2013-01-09 17:52:00
12:52 PM,57.0,46.0,67,30.39,10.0,NW,5.8,-,N/A,,Clear,310,2013-01-09 18:52:00
1:52 PM,59.0,44.1,58,30.39,10.0,North,4.6,-,N/A,,Clear,350,2013-01-09 19:52:00
2:52 PM,57.9,43.0,58,30.40,10.0,Variable,5.8,-,N/A,,Clear,0,2013-01-09 20:52:00
3:52 PM,55.0,43.0,64,30.41,10.0,North,6.9,-,N/A,,Clear,10,2013-01-09 21:52:00
4:52 PM,53.1,39.9,61,30.42,10.0,NNE,4.6,-,N/A,,Clear,20,2013-01-09 22:52:00
5:52 PM,51.1,39.0,63,30.43,10.0,North,8.1,-,N/A,,Clear,10,2013-01-09 23:52:00
6:52 PM,48.9,37.9,66,30.45,10.0,NNE,4.6,-,N/A,,Clear,30,2013-01-10 00:52:00
7:52 PM,48.0,37.9,68,30.46,10.0,NE,5.8,-,N/A,,Clear,40,2013-01-10 01:52:00
8:52 PM,46.0,37.0,71,30.48,10.0,Calm,Calm,-,N/A,,Clear,0,2013-01-10 02:52:00
9:52 PM,45.0,37.0,74,30.47,10.0,NE,5.8,-,N/A,,Clear,50,2013-01-10 03:52:00
10:52 PM,46.0,39.0,76,30.46,10.0,ENE,4.6,-,N/A,,Clear,70,2013-01-10 04:52:00
11:52 PM,45.0,37.9,76,30.47,10.0,NE,5.8,-,N/A,,Clear,50,2013-01-10 05:52:00